Key West, FL

6:56 AM EST on December 06, 2016 (GMT -0500)
Key West International

Weather History for KEYW - July, 2013

Change the Weather History Date:

Saturday, July 6, 2013

  Actual Average Record
Temperature  
Mean Temperature 84 °F 84 °F  
Max Temperature 88 °F 89 °F 95 °F (1881)
Min Temperature 80 °F 80 °F 71 °F (1918)
Degree Days  
Heating Degree Days 0 0  
Month to date heating degree days 0 0  
Since 1 June heating degree days 0 0  
Since 1 July heating degree days 0 0  
Cooling Degree Days 19 19  
Month to date cooling degree days 103 114  
Year to date cooling degree days 2290 2093  
Since 1 June cooling degree days 661 663  
Growing Degree Days 33 (Base 50)    
Moisture  
Dew Point 76 °F    
Average Humidity 78    
Maximum Humidity 85    
Minimum Humidity 70    
Precipitation  
Precipitation 0.17 in 0.12 in 1.65 in (1986)
Month to date precipitation 3.01 0.73  
Year to date precipitation 26.34 15.47  
Snow  
Snow 0.00 in - - ()
Month to date snowfall 0.0  
Since 1 June snowfall 0.0  
Since 1 July snowfall 0.0  
Snow Depth 0.00 in    
Sea Level Pressure  
Sea Level Pressure 30.04 in    
Wind  
Wind Speed 13 mph (ESE)    
Max Wind Speed 21 mph    
Max Gust Speed 31 mph    
Visibility 10 miles    
Events Rain , Thunderstorm    
T = Trace of Precipitation, MM = Missing Value Source: NWS Daily Summary

Daily Weather History Graph

Daily Weather History Graph

Search for Another Location

Airport or City:

Trip Planner

Search our weather history database for the weather conditions in past years. The results will help you decide how hot, cold, wet, or windy it might be!

Date:

Astronomy

Jul. 06, 2013 Rise Set
Actual Time 6:43 AM EDT 8:19 PM EDT
Civil Twilight 6:18 AM EDT 8:45 PM EDT
Nautical Twilight 5:47 AM EDT 9:15 PM EDT
Astronomical Twilight 5:15 AM EDT 9:47 PM EDT
Moon 5:23 AM EDT 7:05 PM EDT
Length of Visible Light 14h 26m
Length of Day
13h 35m
Waning Crescent, 2% of the Moon is Illuminated
Jul 6
Waning Crescent
Jul 8
New
Jul 15
First Quarter
Jul 22
Full
Jul 29
Last Quarter

Hourly Weather History & Observations

Time (EDT) Temp. Heat Index Dew Point Humidity Pressure Visibility Wind Dir Wind Speed Gust Speed Precip Events Conditions
12:53 AM 80.1 °F 85.1 °F 75.0 °F 85% 30.07 in 10.0 mi ENE 4.6 mph - 0.00 in   Clear
1:53 AM 82.0 °F 89.4 °F 75.9 °F 82% 30.06 in 10.0 mi ESE 8.1 mph - N/A   Partly Cloudy
2:00 AM 80.6 °F 86.2 °F 75.2 °F 84% 30.06 in 2.5 mi SE 12.7 mph 31.1 mph 0.00 in Rain Heavy Rain
2:13 AM 82.4 °F 90.9 °F 77.0 °F 84% 30.05 in 8.0 mi ESE 10.4 mph - 0.17 in Rain , Thunderstorm Light Rain
2:36 AM 80.6 °F 86.2 °F 75.2 °F 84% 30.05 in 10.0 mi East 5.8 mph - 0.17 in   Clear
2:53 AM 82.0 °F 89.4 °F 75.9 °F 82% 30.04 in 10.0 mi East 10.4 mph - 0.17 in   Clear
3:53 AM 81.0 °F 87.3 °F 75.9 °F 85% 30.02 in 10.0 mi East 8.1 mph - N/A   Scattered Clouds
4:09 AM 82.4 °F 89.5 °F 75.2 °F 79% 30.01 in 10.0 mi East 15.0 mph 19.6 mph N/A   Mostly Cloudy
4:16 AM 82.4 °F 89.5 °F 75.2 °F 79% 30.01 in 10.0 mi East 11.5 mph 19.6 mph N/A   Scattered Clouds
4:53 AM 82.0 °F 89.4 °F 75.9 °F 82% 30.01 in 10.0 mi East 13.8 mph - N/A   Clear
5:53 AM 82.0 °F 89.4 °F 75.9 °F 82% 30.01 in 10.0 mi ESE 13.8 mph - 0.00 in Rain Light Rain
6:29 AM 80.6 °F 86.2 °F 75.2 °F 84% 30.02 in 10.0 mi SE 13.8 mph - 0.00 in   Mostly Cloudy
6:53 AM 82.0 °F 89.4 °F 75.9 °F 82% 30.02 in 10.0 mi SE 11.5 mph - 0.00 in   Scattered Clouds
7:53 AM 82.0 °F 88.6 °F 75.0 °F 79% 30.04 in 9.0 mi ESE 15.0 mph - 0.00 in Rain Light Rain
8:53 AM 82.9 °F 90.2 °F 75.0 °F 77% 30.05 in 10.0 mi ESE 15.0 mph - 0.00 in   Partly Cloudy
9:21 AM 82.4 °F 89.5 °F 75.2 °F 79% 30.06 in 10.0 mi SE 13.8 mph - N/A   Mostly Cloudy
9:32 AM 82.4 °F 90.9 °F 77.0 °F 84% 30.06 in 10.0 mi SE 13.8 mph - N/A   Mostly Cloudy
9:53 AM 84.0 °F 92.6 °F 75.9 °F 76% 30.06 in 10.0 mi ESE 13.8 mph - N/A   Clear
10:53 AM 84.9 °F 94.1 °F 75.9 °F 74% 30.06 in 10.0 mi East 17.3 mph - N/A   Clear
11:53 AM 86.0 °F 96.0 °F 75.9 °F 72% 30.07 in 10.0 mi ESE 12.7 mph - N/A   Clear
12:53 PM 87.1 °F 98.8 °F 77.0 °F 72% 30.07 in 10.0 mi ESE 18.4 mph - N/A   Clear
1:53 PM 87.1 °F 98.8 °F 77.0 °F 72% 30.06 in 10.0 mi ESE 17.3 mph - N/A   Clear
2:53 PM 86.0 °F 96.0 °F 75.9 °F 72% 30.04 in 10.0 mi East 18.4 mph 26.5 mph N/A   Partly Cloudy
3:53 PM 86.0 °F 96.9 °F 77.0 °F 74% 30.02 in 10.0 mi East 18.4 mph - N/A   Scattered Clouds
4:46 PM 84.2 °F 92.3 °F 75.2 °F 74% 30.01 in 10.0 mi ESE 17.3 mph 24.2 mph N/A   Overcast
4:53 PM 84.0 °F 92.6 °F 75.9 °F 76% 30.01 in 10.0 mi SE 16.1 mph - 0.00 in Rain Light Rain
5:53 PM 84.0 °F 91.2 °F 73.9 °F 72% 30.01 in 10.0 mi ESE 13.8 mph - 0.00 in   Mostly Cloudy
6:53 PM 84.0 °F 92.6 °F 75.9 °F 76% 30.02 in 10.0 mi ESE 10.4 mph - N/A   Clear
7:53 PM 82.9 °F 90.2 °F 75.0 °F 77% 30.03 in 10.0 mi East 13.8 mph - N/A   Clear
8:53 PM 82.9 °F 89.4 °F 73.9 °F 74% 30.03 in 10.0 mi East 13.8 mph - N/A   Clear
9:53 PM 82.9 °F 90.2 °F 75.0 °F 77% 30.06 in 10.0 mi ESE 12.7 mph - N/A   Scattered Clouds
10:53 PM 82.9 °F 89.4 °F 73.9 °F 74% 30.07 in 10.0 mi East 11.5 mph - N/A   Mostly Cloudy
11:53 PM 82.9 °F 89.4 °F 73.9 °F 74% 30.07 in 10.0 mi East 6.9 mph - N/A   Clear